Visibility
15.0 15.0 15.0 15.0 15.0 15.0 15.0 15.0 15.0 15.0 15.0 15.0 15.0 15.0 15.0 15.0 15.0 15.0 15.0 15.0 15.0 15.0 15.0 15.0 15.0 15.0 15.0 15.0 15.0 15.0 15.0 11.1 15.0 15.0 15.0 15.0 15.0 15.0 15.0 15.0 15.0 15.0 15.0
15.0 15.0 15.0 15.0 15.0 15.0 15.0 15.0 15.0 15.0 15.0 15.0 15.0 15.0 15.0 15.0 15.0 15.0 15.0 15.0 9.7 14.4 14.3 5.9 15.0 15.0 15.0 14.8 10.3 15.0 15.0 15.0 15.0 15.0 15.0 15.0 15.0 15.0 15.0 15.0 15.0 15.0 15.0
15.0 15.0 15.0 15.0 15.0 15.0 15.0 15.0 15.0 15.0 15.0 15.0 15.0 15.0 15.0 15.0 15.0 15.0 15.0 14.7 13.7 10.8 13.4 8.3 14.1 8.0 13.6 15.0 15.0 15.0 15.0 15.0 15.0 15.0 15.0 15.0 15.0 15.0 15.0 15.0 15.0 15.0 15.0
15.0 15.0 15.0 15.0 15.0 15.0 15.0 15.0 15.0 15.0 15.0 15.0 15.0 15.0 15.0 15.0 15.0 15.0 15.0 15.0 14.1 11.5 8.2 8.9 10.9 7.2 7.7 7.6 8.2 15.0 15.0 14.0 14.3 15.0 15.0 15.0 15.0 15.0 15.0 15.0 15.0 15.0 15.0
15.0 15.0 15.0 15.0 15.0 15.0 15.0 15.0 15.0 15.0 15.0 15.0 15.0 15.0 15.0 15.0 15.0 15.0 15.0 15.0 15.0 15.0 8.9 13.1 5.6 13.2 15.0 13.5 9.0 8.6 8.0 4.9 11.2 9.9 0.6 15.0 15.0 15.0 9.4 15.0 15.0 15.0 15.0
15.0 15.0 15.0 15.0 15.0 15.0 15.0 15.0 15.0 15.0 15.0 15.0 15.0 15.0 15.0 15.0 15.0 15.0 15.0 15.0 15.0 15.0 15.0 15.0 10.4 15.0 15.0 15.0 15.0 15.0 14.5 8.9 7.5 9.7 15.0 15.0 15.0 1.9 15.0 15.0 15.0 15.0 15.0
15.0 15.0 15.0 15.0 15.0 15.0 15.0 15.0 15.0 15.0 15.0 4.9 15.0 15.0 15.0 15.0 15.0 15.0 15.0 15.0 15.0 15.0 15.0 15.0 15.0 15.0 15.0 15.0 15.0 3.0 15.0 15.0 15.0 6.3 15.0 15.0 15.0 15.0 12.6 15.0 15.0 15.0 15.0
15.0 15.0 15.0 15.0 15.0 15.0 15.0 15.0 15.0 15.0 15.0 15.0 15.0 15.0 15.0 15.0 15.0 15.0 15.0 15.0 15.0 15.0 15.0 15.0 15.0 15.0 15.0 13.8 12.6 5.0 15.0 15.0 12.5 15.0 15.0 10.5 9.4 3.9 4.0 7.0 8.4 5.1 13.1
15.0 15.0 15.0 15.0 15.0 15.0 15.0 15.0 15.0 14.4 15.0 15.0 15.0 15.0 15.0 15.0 15.0 15.0 0.1 15.0 14.1 13.5 15.0 15.0 15.0 15.0 15.0 11.4 14.1 11.6 12.7 8.1 15.0 15.0 15.0 15.0 15.0 4.7 13.1 3.5 14.9 12.5 15.0
15.0 15.0 15.0 15.0 15.0 15.0 15.0 15.0 15.0 15.0 15.0 15.0 15.0 15.0 15.0 15.0 15.0 0.1 0.0 7.6 15.0 15.0 15.0 14.9 10.3 14.1 15.0 15.0 9.4 4.9 6.4 15.0 15.0 14.9 15.0 2.5 1.6 15.0 11.4 9.4 15.0 15.0 15.0
15.0 15.0 15.0 12.5 15.0 15.0 15.0 15.0 15.0 15.0 15.0 15.0 15.0 15.0 8.8 8.0 11.6 0.2 0.0 11.2 2.4 15.0 9.9 0.3 9.9 3.3 0.3 0.1 0.0 8.6 15.0 11.5 13.6 15.0 15.0 15.0 15.0 15.0 15.0 15.0 15.0 15.0 15.0
15.0 15.0 15.0 15.0 15.0 15.0 15.0 15.0 15.0 15.0 15.0 15.0 15.0 15.0 15.0 7.8 5.3 1.6 0.1 0.0 0.9 0.1 3.8 15.0 15.0 0.6 0.0 0.0 0.0 0.0 0.0 0.1 14.8 4.6 6.1 10.1 15.0 15.0 15.0 15.0 15.0 15.0 15.0
15.0 15.0 15.0 15.0 15.0 13.9 12.9 15.0 15.0 15.0 11.3 8.4 11.9 15.0 15.0 15.0 15.0 15.0 0.1 0.0 0.1 0.1 14.9 15.0 0.7 0.0 0.0 0.0 0.0 0.0 0.0 0.0 0.1 0.1 0.1 13.5 15.0 15.0 14.8 9.9 14.3 15.0 9.5
15.0 15.0 15.0 4.7 15.0 15.0 15.0 15.0 11.0 8.9 5.9 5.8 11.3 9.9 15.0 15.0 14.3 15.0 15.0 6.1 15.0 15.0 15.0 0.3 0.2 0.1 0.0 0.1 0.0 0.0 0.0 0.0 0.0 0.0 15.0 15.0 15.0 15.0 15.0 15.0 6.0 15.0 13.9
15.0 15.0 15.0 15.0 15.0 11.3 14.1 15.0 15.0 12.7 9.8 9.5 7.0 15.0 0.2 15.0 13.1 5.2 0.1 8.2 8.6 6.1 0.0 0.2 3.0 0.1 0.0 0.0 0.0 0.0 0.0 0.0 0.0 0.1 0.8 15.0 15.0 15.0 15.0 8.7 7.6 6.1 7.4
15.0 15.0 8.9 15.0 15.0 14.4 15.0 15.0 15.0 0.3 7.1 0.1 0.1 0.0 3.5 0.1 0.1 5.7 0.0 0.0 0.0 0.0 0.0 3.0 14.6 4.6 1.2 0.1 0.1 0.1 0.0 0.1 0.1 9.4 15.0 15.0 15.0 10.2 15.0 10.8 7.1 0.1 0.0
15.0 14.7 6.7 0.5 8.2 15.0 15.0 15.0 0.2 13.9 0.1 0.1 0.1 1.8 0.1 0.2 0.1 0.0 0.0 0.0 0.1 0.1 14.5 5.6 14.9 0.1 0.1 0.1 0.1 0.1 0.1 0.1 0.2 0.2 0.1 0.2 0.2 13.6 0.2 1.0 14.8 0.1 0.1
15.0 11.2 4.3 9.4 9.8 15.0 15.0 15.0 9.9 6.3 7.2 3.6 8.4 0.2 3.1 0.0 0.0 0.0 0.0 0.5 8.7 7.4 15.0 15.0 8.6 13.3 3.1 0.6 0.1 0.1 0.1 0.8 0.2 0.1 0.1 0.1 1.6 6.9 14.5 14.8 5.2 1.1 0.2
15.0 15.0 15.0 15.0 15.0 12.0 15.0 15.0 15.0 7.9 7.6 9.6 9.8 13.0 0.2 0.0 0.0 0.0 0.1 15.0 15.0 15.0 15.0 15.0 15.0 15.0 15.0 9.9 4.7 1.2 0.7 0.1 1.1 0.3 0.1 0.1 0.1 0.1 0.1 1.7 2.2 0.1 0.1
15.0 15.0 14.4 15.0 15.0 15.0 15.0 15.0 12.7 11.6 14.9 9.3 3.3 4.2 4.1 9.6 15.0 15.0 15.0 5.5 3.9 15.0 15.0 15.0 15.0 15.0 15.0 15.0 15.0 9.9 14.2 10.7 15.0 9.5 2.7 0.3 0.2 0.9 0.1 0.1 0.1 0.1 0.1
15.0 15.0 15.0 15.0 15.0 15.0 15.0 15.0 15.0 13.4 6.5 4.5 7.0 0.2 0.1 0.1 15.0 10.0 15.0 15.0 4.6 15.0 15.0 15.0 15.0 15.0 15.0 15.0 15.0 15.0 15.0 14.6 15.0 15.0 15.0 15.0 15.0 14.6 8.2 7.0 3.0 3.7 2.2
15.0 15.0 15.0 15.0 15.0 15.0 15.0 15.0 15.0 15.0 10.8 15.0 10.2 6.5 1.0 15.0 15.0 15.0 15.0 15.0 15.0 10.7 15.0 15.0 6.6 15.0 15.0 15.0 15.0 15.0 15.0 15.0 15.0 15.0 15.0 15.0 15.0 15.0 15.0 14.5 14.5 15.0 15.0
15.0 15.0 15.0 15.0 15.0 13.0 15.0 15.0 15.0 15.0 15.0 6.7 15.0 10.2 15.0 15.0 15.0 15.0 15.0 15.0 15.0 15.0 15.0 15.0 15.0 15.0 15.0 15.0 11.7 5.1 9.2 7.8 15.0 15.0 15.0 15.0 15.0 15.0 15.0 15.0 15.0 15.0 15.0
15.0 15.0 15.0 15.0 15.0 15.0 15.0 12.3 15.0 13.8 15.0 15.0 15.0 15.0 14.7 7.4 15.0 15.0 15.0 15.0 15.0 15.0 15.0 15.0 15.0 15.0 15.0 15.0 15.0 15.0 15.0 15.0 15.0 15.0 15.0 15.0 15.0 11.8 15.0 15.0 15.0 15.0 15.0
15.0 15.0 15.0 15.0 15.0 15.0 10.2 15.0 14.8 15.0 15.0 15.0 15.0 15.0 15.0 13.5 15.0 15.0 15.0 15.0 15.0 14.3 8.0 15.0 15.0 15.0 15.0 15.0 15.0 15.0 0.1 0.1 8.0 0.0 15.0 14.5 11.4 15.0 15.0 15.0 15.0 15.0 15.0
15.0 15.0 15.0 15.0 15.0 15.0 15.0 15.0 10.1 12.0 5.8 15.0 15.0 15.0 15.0 6.1 15.0 15.0 15.0 15.0 15.0 15.0 15.0 15.0 15.0 14.4 15.0 15.0 15.0 0.3 0.1 0.0 0.6 0.2 10.2 15.0 15.0 15.0 15.0 15.0 15.0 15.0 15.0